Tracking 19709 objects as of 17-Jun-2019
HD Live streaming from Space Station
objects crossing your sky now

GAOFEN 3 DEB

Track GAOFEN 3 DEB now!
10-day predictions


NORAD ID: 42679
Int'l Code: 2016-049D
Perigee: 743.8 km
Apogee: 753.1 km
Inclination: 98.4 °
Period: 99.6 minutes
Semi major axis: 7119 km
RCS: Unknown
Launch date: August 9, 2016
Source: People's Republic of China (PRC)
Launch site: Jiuquan Satellite Launch Center, China (JSC)

Note: This is SATELLITE DEBRIS
aabbcc
Your satellite tracking list
Your tracking list is empty




NASA's NSSDC Master Catalog

Two Line Element Set (TLE):
1 42679U 16049D   19167.82783877 -.00000007 +00000-0 +10593-4 0  9992
2 42679 098.4003 179.9136 0006555 185.2477 174.8646 14.45225793150335
Source of the keplerian elements: AFSPC